Regional Weather Roundup
Issued by NWS

Home | Current Version | Previous Version | Text Only | Print | Product List | Glossary On
Versions: 1 2 3 4 5 6 7 8 9 10 11 12 13 14 15 16 17 18 19 20 21 22 23 24 25 26 27 28 29 30 31 32 33 34 35 36 37 38 39 40 41 42 43 44 45 46 47 48 49 50
000
ASCA42 TJSJ 310411
RWRPR
PUERTO RICO/U.S. VIRGIN ISLANDS HOURLY WEATHER ROUNDUP
NATIONAL WEATHER SERVICE SAN JUAN PR
1200 AM AST SAT JAN 31 2015

PRZ001-004-310500-
PUERTO RICO

CITY           SKY/WX    TMP DP  RH WIND       PRES   REMARKS
SAN JUAN LMM   PTCLDY    75  72  88 CALM      30.00F
PONCE          PTCLDY    70  70 100 CALM      29.95F
AGUADILLA      CLEAR     72  68  88 SE5       30.01F
CEIBA          PTCLDY    75  70  83 N7        30.02F
$$

PRZ006-007-310500-
U.S. VIRGIN ISLANDS

CITY           SKY/WX    TMP DP  RH WIND       PRES   REMARKS
CHARLOTTE AMA  PTCLDY    75  70  83 E6        29.99
$$

HOURLY WEATHER ROUNDUP FOR THE NEWS MEDIA

CITY           SKY/WX    TMP DP  RH WIND       PRES   REMARKS
MIAMI          PTCLDY    65  50  58 W6        30.17R
ORLANDO        PTCLDY    56  47  71 N7        30.24R
NEW YORK       PTCLDY    21   5  50 NW28G38   30.00F WCI   3
NEWARK         PTCLDY    18   6  59 NW22G31   30.05S WCI   1
CHICAGO        PTCLDY    21  13  71 SW3       30.37F
HARTFORD       CLOUDY    25  13  60 NW12G21   29.72S WCI  14
BOSTON         CLOUDY    20   9  62 NW26G37   29.76R WCI   2
DALLAS         CLOUDY    53  29  39 E10       30.32F
PHILADELPHIA   CLEAR     23   3  42 NW22G33   30.14R WCI   8


USA.gov is the U.S. government's official web portal to all federal, state and local government web resources and services.